Location: Unspecified
(22.6800°N, 112.2000°E)
Time: 15:45:55
(UTC+08:00)

S-56A Canister/Altair - Pass Details

Date: 29 July 2021
Orbit: 632 x 2500 km, 38.9° (Epoch: 24 September)

Event Time Altitude Azimuth Distance (km) Brightness Sun altitude
Rises 23:14:13 0° 301° (WNW) 5,821 12.6 -44.0°
Reaches altitude 10° 23:18:28 10° 298° (WNW) 4,596 11.9 -44.4°
Enters shadow 23:26:42 42° 276° (W) 2,323 9.9 -45.2°
Maximum altitude 23:30:13 59° 223° (SW) 1,784 - -45.6°
Drops below altitude 10° 23:37:58 10° 145° (SE) 3,108 - -46.2°
Sets 23:40:20 0° 141° (SE) 3,861 - -46.4°
